Time,TemperatureF,DewpointF,PressureIn,WindDirection,WindDirectionDegrees,WindSpeedMPH,WindSpeedGustMPH,Humidity,HourlyPrecipIn,Conditions,Clouds,dailyrainin,SoftwareType,DateUTC
2013-07-25 00:02:00,72.0,62.0,29.97,SSE,157,0.0,2.0,70,0.00,,,0.00,,2013-07-25 05:02:00,
2013-07-25 00:12:00,72.0,62.0,29.96,SSE,157,0.0,0.0,71,0.00,,,0.00,,2013-07-25 05:12:00,
2013-07-25 00:22:00,72.0,62.0,29.96,SSE,157,2.0,5.0,71,0.00,,,0.00,,2013-07-25 05:22:00,
2013-07-25 00:32:00,72.0,62.0,29.96,SSE,157,2.0,5.0,71,0.00,,,0.00,,2013-07-25 05:32:00,
2013-07-25 00:43:00,72.0,62.0,29.96,SSE,157,0.0,0.0,71,0.00,,,0.00,,2013-07-25 05:43:00,
2013-07-25 00:52:00,72.0,62.0,29.96,South,173,1.0,6.0,72,0.00,,,0.00,,2013-07-25 05:52:00,
2013-07-25 01:02:00,72.0,62.0,29.96,South,173,1.0,6.0,72,0.00,,,0.00,,2013-07-25 06:02:00,
2013-07-25 01:12:00,72.0,62.0,29.96,SSE,168,2.0,7.0,72,0.00,,,0.00,,2013-07-25 06:12:00,
2013-07-25 01:22:00,71.0,62.0,29.97,South,173,2.0,7.0,73,0.00,,,0.00,,2013-07-25 06:22:00,
2013-07-25 01:32:00,71.0,62.0,29.97,South,173,2.0,7.0,73,0.00,,,0.00,,2013-07-25 06:32:00,
2013-07-25 01:42:00,70.0,62.0,29.97,South,173,1.0,5.0,76,0.00,,,0.00,,2013-07-25 06:42:00,
2013-07-25 01:52:00,70.0,62.0,29.97,South,176,2.0,6.0,77,0.00,,,0.00,,2013-07-25 06:52:00,
2013-07-25 02:02:00,70.0,62.0,29.97,South,176,2.0,6.0,77,0.00,,,0.00,,2013-07-25 07:02:00,
2013-07-25 02:12:00,70.0,62.0,29.97,South,180,2.0,7.0,76,0.00,,,0.00,,2013-07-25 07:12:00,
2013-07-25 02:22:00,70.0,62.0,29.97,South,184,0.0,6.0,77,0.00,,,0.00,,2013-07-25 07:22:00,
2013-07-25 02:32:00,70.0,62.0,29.97,South,184,0.0,6.0,77,0.00,,,0.00,,2013-07-25 07:32:00,
2013-07-25 02:43:00,70.0,62.0,29.97,SSW,194,0.0,4.0,77,0.00,,,0.00,,2013-07-25 07:43:00,
2013-07-25 02:53:00,70.0,62.0,29.96,SSW,196,3.0,8.0,77,0.00,,,0.00,,2013-07-25 07:53:00,
2013-07-25 03:02:00,70.0,62.0,29.96,SSW,196,3.0,8.0,77,0.00,,,0.00,,2013-07-25 08:02:00,
2013-07-25 03:12:00,70.0,62.0,29.96,South,181,3.0,10.0,76,0.00,,,0.00,,2013-07-25 08:12:00,
2013-07-25 03:22:00,71.0,63.0,29.96,South,172,3.0,8.0,75,0.00,,,0.00,,2013-07-25 08:22:00,
2013-07-25 03:32:00,71.0,63.0,29.96,South,172,3.0,8.0,75,0.00,,,0.00,,2013-07-25 08:32:00,
2013-07-25 03:44:00,71.0,63.0,29.96,South,177,1.0,7.0,75,0.00,,,0.00,,2013-07-25 08:44:00,
2013-07-25 03:52:00,70.0,62.0,29.96,South,190,1.0,8.0,76,0.00,,,0.00,,2013-07-25 08:52:00,
2013-07-25 04:02:00,70.0,62.0,29.96,South,190,1.0,8.0,76,0.00,,,0.00,,2013-07-25 09:02:00,
2013-07-25 04:12:00,70.0,62.0,29.96,SSE,159,2.0,6.0,77,0.00,,,0.00,,2013-07-25 09:12:00,
2013-07-25 04:22:00,70.0,62.0,29.96,South,186,5.0,8.0,77,0.00,,,0.00,,2013-07-25 09:22:00,
2013-07-25 04:33:00,70.0,62.0,29.96,South,186,5.0,8.0,77,0.00,,,0.00,,2013-07-25 09:33:00,
2013-07-25 04:43:00,70.0,62.0,29.96,SSE,158,2.0,8.0,77,0.00,,,0.00,,2013-07-25 09:43:00,
2013-07-25 04:52:00,69.0,61.0,29.96,South,173,5.0,8.0,77,0.00,,,0.00,,2013-07-25 09:52:00,
2013-07-25 05:02:00,69.0,61.0,29.96,South,173,5.0,8.0,77,0.00,,,0.00,,2013-07-25 10:02:00,
2013-07-25 05:12:00,69.0,61.0,29.96,SSW,192,4.0,10.0,77,0.00,,,0.00,,2013-07-25 10:12:00,
2013-07-25 05:22:00,69.0,61.0,29.96,South,171,5.0,10.0,77,0.00,,,0.00,,2013-07-25 10:22:00,
2013-07-25 05:32:00,69.0,61.0,29.96,South,171,5.0,10.0,77,0.00,,,0.00,,2013-07-25 10:32:00,
2013-07-25 05:42:00,69.0,62.0,29.96,South,183,4.0,12.0,78,0.00,,,0.00,,2013-07-25 10:42:00,
2013-07-25 05:53:00,69.0,62.0,29.96,South,189,5.0,10.0,78,0.00,,,0.00,,2013-07-25 10:53:00,
2013-07-25 06:02:00,69.0,62.0,29.96,South,189,5.0,10.0,78,0.00,,,0.00,,2013-07-25 11:02:00,
2013-07-25 06:12:00,69.0,61.0,29.96,South,169,5.0,11.0,76,0.00,,,0.00,,2013-07-25 11:12:00,
2013-07-25 06:22:00,70.0,61.0,29.96,South,180,7.0,13.0,74,0.00,,,0.00,,2013-07-25 11:22:00,
2013-07-25 06:32:00,70.0,61.0,29.96,South,180,7.0,13.0,74,0.00,,,0.00,,2013-07-25 11:32:00,
2013-07-25 06:43:00,69.0,61.0,29.95,South,171,6.0,10.0,76,0.00,,,0.00,,2013-07-25 11:43:00,
2013-07-25 06:52:00,69.0,61.0,29.95,SSW,194,6.0,11.0,75,0.00,,,0.00,,2013-07-25 11:52:00,
2013-07-25 07:02:00,69.0,61.0,29.95,SSW,194,6.0,11.0,75,0.00,,,0.00,,2013-07-25 12:02:00,
2013-07-25 07:12:00,69.0,61.0,29.95,South,176,5.0,10.0,75,0.00,,,0.00,,2013-07-25 12:12:00,
2013-07-25 07:22:00,69.0,61.0,29.96,SSW,211,5.0,10.0,75,0.00,,,0.00,,2013-07-25 12:22:00,
2013-07-25 07:32:00,69.0,61.0,29.96,SSW,211,5.0,10.0,75,0.00,,,0.00,,2013-07-25 12:32:00,
2013-07-25 07:45:00,70.0,61.0,29.95,South,175,6.0,11.0,74,0.00,,,0.00,,2013-07-25 12:45:00,
2013-07-25 07:53:00,70.0,61.0,29.95,SSE,156,6.0,13.0,73,0.00,,,0.00,,2013-07-25 12:53:00,
2013-07-25 08:02:00,70.0,61.0,29.95,SSE,156,6.0,13.0,73,0.00,,,0.00,,2013-07-25 13:02:00,
2013-07-25 08:12:00,70.0,61.0,29.95,South,187,5.0,12.0,74,0.00,,,0.00,,2013-07-25 13:12:00,
2013-07-25 08:22:00,70.0,62.0,29.96,South,184,4.0,12.0,75,0.00,,,0.00,,2013-07-25 13:22:00,
2013-07-25 08:33:00,70.0,62.0,29.96,South,184,4.0,12.0,75,0.00,,,0.00,,2013-07-25 13:33:00,
2013-07-25 08:42:00,70.0,62.0,29.96,South,175,6.0,11.0,75,0.00,,,0.00,,2013-07-25 13:42:00,
2013-07-25 08:52:00,71.0,63.0,29.95,South,182,6.0,12.0,75,0.00,,,0.00,,2013-07-25 13:52:00,
2013-07-25 09:02:00,71.0,63.0,29.95,South,182,6.0,12.0,75,0.00,,,0.00,,2013-07-25 14:02:00,
2013-07-25 09:12:00,71.0,63.0,29.96,South,180,1.0,11.0,75,0.00,,,0.00,,2013-07-25 14:12:00,
2013-07-25 09:22:00,72.0,63.0,29.96,SSE,164,4.0,8.0,74,0.00,,,0.00,,2013-07-25 14:22:00,
2013-07-25 09:33:00,72.0,63.0,29.96,SSE,164,4.0,8.0,74,0.00,,,0.00,,2013-07-25 14:33:00,
2013-07-25 09:43:00,73.0,64.0,29.95,SSE,160,5.0,10.0,73,0.00,,,0.00,,2013-07-25 14:43:00,
2013-07-25 09:53:00,75.0,65.0,29.95,South,190,7.0,16.0,70,0.00,,,0.00,,2013-07-25 14:53:00,
2013-07-25 10:02:00,75.0,65.0,29.95,South,190,7.0,16.0,70,0.00,,,0.00,,2013-07-25 15:02:00,
2013-07-25 10:12:00,76.0,64.0,29.94,SSW,202,7.0,15.0,67,0.00,,,0.00,,2013-07-25 15:12:00,
2013-07-25 10:22:00,77.0,64.0,29.93,SSW,201,6.0,13.0,65,0.00,,,0.00,,2013-07-25 15:22:00,
2013-07-25 10:32:00,77.0,64.0,29.93,SSW,201,6.0,13.0,65,0.00,,,0.00,,2013-07-25 15:32:00,
2013-07-25 10:44:00,77.0,64.0,29.93,South,176,7.0,17.0,65,0.00,,,0.00,,2013-07-25 15:44:00,
2013-07-25 10:52:00,77.0,65.0,29.94,SW,214,9.0,14.0,66,0.00,,,0.00,,2013-07-25 15:52:00,
2013-07-25 11:02:00,77.0,65.0,29.94,SW,214,9.0,14.0,66,0.00,,,0.00,,2013-07-25 16:02:00,
2013-07-25 11:12:00,78.0,66.0,29.93,SSW,209,6.0,14.0,67,0.00,,,0.00,,2013-07-25 16:12:00,
2013-07-25 11:22:00,78.0,65.0,29.93,SW,229,6.0,15.0,65,0.00,,,0.00,,2013-07-25 16:22:00,
2013-07-25 11:33:00,78.0,65.0,29.93,SW,229,6.0,15.0,65,0.00,,,0.00,,2013-07-25 16:33:00,
2013-07-25 11:45:00,79.0,65.0,29.93,SW,219,7.0,17.0,63,0.00,,,0.00,,2013-07-25 16:45:00,
2013-07-25 11:53:00,78.0,65.0,29.93,SW,222,4.0,15.0,65,0.00,,,0.00,,2013-07-25 16:53:00,
2013-07-25 12:03:00,78.0,65.0,29.93,SW,222,4.0,15.0,65,0.00,,,0.00,,2013-07-25 17:03:00,
2013-07-25 12:12:00,80.0,66.0,29.93,SSW,198,3.0,10.0,63,0.00,,,0.00,,2013-07-25 17:12:00,
2013-07-25 12:22:00,79.0,65.0,29.93,SSW,202,5.0,11.0,62,0.00,,,0.00,,2013-07-25 17:22:00,
2013-07-25 12:32:00,79.0,65.0,29.93,SSW,202,5.0,11.0,62,0.00,,,0.00,,2013-07-25 17:32:00,
2013-07-25 12:43:00,78.0,65.0,29.93,WSW,240,1.0,7.0,64,0.00,,,0.00,,2013-07-25 17:43:00,
2013-07-25 12:53:00,78.0,66.0,29.93,South,170,2.0,8.0,67,0.00,,,0.00,,2013-07-25 17:53:00,
2013-07-25 13:02:00,78.0,66.0,29.93,South,170,2.0,8.0,67,0.00,,,0.00,,2013-07-25 18:02:00,
2013-07-25 13:12:00,76.0,65.0,29.92,SSW,204,4.0,11.0,69,0.00,,,0.00,,2013-07-25 18:12:00,
2013-07-25 13:22:00,76.0,66.0,29.93,SSW,201,4.0,12.0,71,0.00,,,0.00,,2013-07-25 18:22:00,
2013-07-25 13:33:00,76.0,66.0,29.93,SSW,201,4.0,12.0,71,0.00,,,0.00,,2013-07-25 18:33:00,
2013-07-25 13:43:00,75.0,66.0,29.93,SSW,204,3.0,10.0,74,0.00,,,0.00,,2013-07-25 18:43:00,
2013-07-25 13:52:00,74.0,67.0,29.93,South,183,2.0,7.0,78,0.00,,,0.00,,2013-07-25 18:52:00,
2013-07-25 14:02:00,74.0,67.0,29.93,South,183,2.0,7.0,78,0.00,,,0.00,,2013-07-25 19:02:00,
2013-07-25 14:12:00,74.0,67.0,29.93,SSW,196,3.0,7.0,79,0.00,,,0.00,,2013-07-25 19:12:00,
2013-07-25 14:22:00,75.0,67.0,29.93,SSW,192,4.0,9.0,76,0.00,,,0.00,,2013-07-25 19:22:00,
2013-07-25 14:33:00,75.0,67.0,29.93,SSW,192,4.0,9.0,76,0.00,,,0.00,,2013-07-25 19:33:00,
2013-07-25 14:42:00,76.0,67.0,29.93,South,178,1.0,8.0,75,0.00,,,0.00,,2013-07-25 19:42:00,
2013-07-25 14:52:00,77.0,67.0,29.93,South,190,5.0,12.0,71,0.00,,,0.00,,2013-07-25 19:52:00,
2013-07-25 15:02:00,77.0,67.0,29.93,South,190,5.0,12.0,71,0.00,,,0.00,,2013-07-25 20:02:00,
2013-07-25 15:12:00,77.0,66.0,29.92,South,181,5.0,11.0,70,0.00,,,0.00,,2013-07-25 20:12:00,
2013-07-25 15:22:00,79.0,68.0,29.91,SSW,209,7.0,14.0,68,0.00,,,0.00,,2013-07-25 20:22:00,
2013-07-25 15:32:00,79.0,68.0,29.91,SSW,209,7.0,14.0,68,0.00,,,0.00,,2013-07-25 20:32:00,
2013-07-25 15:43:00,81.0,67.0,29.91,SSW,202,7.0,21.0,63,0.00,,,0.00,,2013-07-25 20:43:00,
2013-07-25 15:53:00,80.0,67.0,29.92,South,183,11.0,21.0,64,0.00,,,0.00,,2013-07-25 20:53:00,
2013-07-25 16:02:00,80.0,67.0,29.92,South,183,11.0,21.0,64,0.00,,,0.00,,2013-07-25 21:02:00,
2013-07-25 16:12:00,80.0,68.0,29.91,SSW,197,10.0,19.0,66,0.00,,,0.00,,2013-07-25 21:12:00,
2013-07-25 16:22:00,80.0,66.0,29.91,SSW,199,6.0,16.0,63,0.00,,,0.00,,2013-07-25 21:22:00,
2013-07-25 16:32:00,80.0,66.0,29.91,SSW,199,6.0,16.0,63,0.00,,,0.00,,2013-07-25 21:32:00,
2013-07-25 16:44:00,81.0,66.0,29.91,South,191,4.0,17.0,60,0.00,,,0.00,,2013-07-25 21:44:00,
2013-07-25 16:52:00,81.0,66.0,29.89,South,184,5.0,16.0,60,0.00,,,0.00,,2013-07-25 21:52:00,
2013-07-25 17:02:00,81.0,66.0,29.89,South,184,5.0,16.0,60,0.00,,,0.00,,2013-07-25 22:02:00,
2013-07-25 17:12:00,81.0,65.0,29.89,SSW,195,8.0,20.0,58,0.00,,,0.00,,2013-07-25 22:12:00,
2013-07-25 17:22:00,82.0,64.0,29.89,SSW,199,7.0,15.0,55,0.00,,,0.00,,2013-07-25 22:22:00,
2013-07-25 17:32:00,82.0,64.0,29.89,SSW,199,7.0,15.0,55,0.00,,,0.00,,2013-07-25 22:32:00,
2013-07-25 17:43:00,81.0,63.0,29.89,SSW,195,8.0,22.0,55,0.00,,,0.00,,2013-07-25 22:43:00,
2013-07-25 17:52:00,80.0,63.0,29.91,SW,216,10.0,20.0,56,0.00,,,0.00,,2013-07-25 22:52:00,
2013-07-25 18:02:00,80.0,63.0,29.91,SW,216,10.0,20.0,56,0.00,,,0.00,,2013-07-25 23:02:00,
2013-07-25 18:12:00,77.0,62.0,29.91,South,190,10.0,21.0,60,0.00,,,0.00,,2013-07-25 23:12:00,
2013-07-25 18:22:00,76.0,64.0,29.90,South,190,4.0,17.0,67,0.00,,,0.00,,2013-07-25 23:22:00,
2013-07-25 18:32:00,76.0,64.0,29.90,South,190,4.0,17.0,67,0.00,,,0.00,,2013-07-25 23:32:00,
2013-07-25 18:43:00,75.0,64.0,29.89,SSW,211,6.0,20.0,69,0.00,,,0.00,,2013-07-25 23:43:00,
2013-07-25 18:52:00,74.0,63.0,29.88,SSW,205,5.0,13.0,69,0.00,,,0.00,,2013-07-25 23:52:00,
2013-07-25 19:02:00,74.0,63.0,29.88,SSW,205,5.0,13.0,69,0.00,,,0.00,,2013-07-26 00:02:00,
2013-07-25 19:12:00,74.0,63.0,29.89,SW,216,5.0,12.0,69,0.00,,,0.00,,2013-07-26 00:12:00,
2013-07-25 19:22:00,74.0,64.0,29.90,SW,222,5.0,9.0,70,0.00,,,0.00,,2013-07-26 00:22:00,
2013-07-25 19:32:00,74.0,64.0,29.90,SW,222,5.0,9.0,70,0.00,,,0.00,,2013-07-26 00:32:00,
2013-07-25 19:43:00,73.0,64.0,29.90,South,188,4.0,12.0,73,0.00,,,0.00,,2013-07-26 00:43:00,
2013-07-25 19:52:00,72.0,64.0,29.92,SW,215,1.0,8.0,76,0.00,,,0.00,,2013-07-26 00:52:00,
2013-07-25 20:02:00,72.0,64.0,29.92,SW,215,1.0,8.0,76,0.00,,,0.00,,2013-07-26 01:02:00,
2013-07-25 20:12:00,71.0,64.0,29.93,SW,215,2.0,7.0,79,0.01,,,0.01,,2013-07-26 01:12:00,
2013-07-25 20:22:00,71.0,65.0,29.92,SSW,192,4.0,8.0,80,0.02,,,0.02,,2013-07-26 01:22:00,
2013-07-25 20:32:00,71.0,65.0,29.92,SSW,192,4.0,8.0,80,0.02,,,0.02,,2013-07-26 01:32:00,
2013-07-25 20:43:00,70.0,65.0,29.93,South,177,0.0,11.0,83,0.04,,,0.04,,2013-07-26 01:43:00,
2013-07-25 20:52:00,70.0,66.0,29.93,SW,225,0.0,0.0,86,0.06,,,0.06,,2013-07-26 01:52:00,
2013-07-25 21:02:00,70.0,66.0,29.93,SW,225,0.0,0.0,86,0.06,,,0.06,,2013-07-26 02:02:00,
2013-07-25 21:12:00,69.0,65.0,29.93,SW,225,0.0,0.0,87,0.05,,,0.06,,2013-07-26 02:12:00,
2013-07-25 21:22:00,69.0,65.0,29.92,South,185,2.0,5.0,88,0.04,,,0.06,,2013-07-26 02:22:00,
2013-07-25 21:32:00,69.0,65.0,29.92,South,185,2.0,5.0,88,0.04,,,0.06,,2013-07-26 02:32:00,
2013-07-25 21:43:00,69.0,66.0,29.93,South,190,0.0,0.0,89,0.02,,,0.06,,2013-07-26 02:43:00,
2013-07-25 21:52:00,68.0,65.0,29.93,South,190,0.0,0.0,91,0.00,,,0.06,,2013-07-26 02:52:00,
2013-07-25 22:02:00,68.0,65.0,29.93,South,190,0.0,0.0,91,0.00,,,0.06,,2013-07-26 03:02:00,
2013-07-25 22:12:00,68.0,66.0,29.93,South,190,0.0,0.0,92,0.00,,,0.06,,2013-07-26 03:12:00,
2013-07-25 22:22:00,68.0,66.0,29.92,South,190,0.0,0.0,92,0.00,,,0.06,,2013-07-26 03:22:00,
2013-07-25 22:32:00,68.0,66.0,29.92,South,190,0.0,0.0,92,0.00,,,0.06,,2013-07-26 03:32:00,
2013-07-25 22:43:00,68.0,66.0,29.93,South,190,0.0,0.0,93,0.00,,,0.06,,2013-07-26 03:43:00,
2013-07-25 22:53:00,68.0,66.0,29.93,South,190,0.0,0.0,94,0.00,,,0.06,,2013-07-26 03:53:00,
2013-07-25 23:02:00,68.0,66.0,29.93,South,190,0.0,0.0,94,0.00,,,0.06,,2013-07-26 04:02:00,
2013-07-25 23:12:00,68.0,66.0,29.93,South,186,1.0,6.0,93,0.01,,,0.07,,2013-07-26 04:12:00,
2013-07-25 23:22:00,68.0,66.0,29.92,South,185,2.0,7.0,92,0.01,,,0.07,,2013-07-26 04:22:00,
2013-07-25 23:32:00,68.0,66.0,29.92,South,185,2.0,7.0,92,0.01,,,0.07,,2013-07-26 04:32:00,
2013-07-25 23:42:00,68.0,66.0,29.92,SSW,203,3.0,7.0,92,0.01,,,0.07,,2013-07-26 04:42:00,
2013-07-25 23:53:00,68.0,65.0,29.91,South,190,5.0,9.0,91,0.01,,,0.07,,2013-07-26 04:53:00,